DW1024 Weather Reports


Display with metric or nautical units.
time (UTC)temp
F
wind
direction
speed
MPH
gust
MPH
rain 1hr
in
rain 24hr
in
rain mn
in
humidity
%
barometer
mb
20260507165016 58 104 2.0 5.0 0.00 0.00 0.00 70 1015.2
20260507163518 58 261 1.0 3.0 0.00 0.00 0.00 66 1015.1
20260507162017 59 281 1.0 7.0 0.00 0.00 0.00 66 1015.1
20260507160519 59 92 1.0 5.0 0.00 0.00 0.00 67 1014.8
20260507155016 59 292 2.0 8.0 0.00 0.00 0.00 68 1014.8
20260507152016 61 234 2.0 10.0 0.00 0.01 0.00 65 1014.8
20260507150512 62 90 3.0 8.0 0.00 0.09 0.00 61 1014.6
20260507145013 62 254 2.0 7.0 0.00 0.24 0.00 64 1014.6
20260507143513 60 300 3.0 12.0 0.00 0.33 0.00 66 1014.7
20260507140515 61 161 2.0 7.0 0.00 0.33 0.00 64 1014.7
20260507135012 62 74 3.0 8.0 0.00 0.33 0.00 63 1014.8
20260507133515 62 38 3.0 7.0 0.00 0.33 0.00 62 1014.8
20260507130514 63 315 3.0 9.0 0.00 0.33 0.00 63 1014.8
20260507125013 61 235 3.0 12.0 0.00 0.33 0.00 66 1014.8
20260507122012 62 285 4.0 14.0 0.00 0.33 0.00 61 1014.7
20260507120519 60 290 4.0 10.0 0.00 0.33 0.00 64 1014.7
20260507115012 60 218 3.0 11.0 0.00 0.33 0.00 65 1014.8
20260507110503 60 292 4.0 14.0 0.00 0.33 0.00 67 1015.1
20260507105006 58 232 5.0 13.0 0.00 0.33 0.00 68 1015.0
20260507103505 57 182 4.0 13.0 0.00 0.33 0.00 68 1015.0
20260507102006 57 270 4.0 10.0 0.00 0.33 0.00 72 1015.0
20260507100509 58 306 4.0 13.0 0.00 0.33 0.00 68 1015.1
20260507095004 55 198 3.0 12.0 0.00 0.33 0.00 73 1015.0
20260507093508 54 207 3.0 13.0 0.00 0.33 0.00 76 1014.8
20260507092003 54 270 4.0 13.0 0.00 0.33 0.00 75 1014.8
20260507090507 55 322 4.0 11.0 0.00 0.33 0.00 72 1014.5
20260507085004 56 254 3.0 12.0 0.00 0.33 0.00 72 1014.4
20260507082006 56 229 4.0 11.0 0.00 0.33 0.00 70 1014.2
20260507080510 56 263 4.0 13.0 0.00 0.33 0.00 72 1013.9
20260507075002 55 217 4.0 12.0 0.00 0.33 0.00 73 1013.9
20260507073503 54 246 4.0 11.0 0.00 0.33 0.00 75 1014.0
20260507072445 55 267 4.0 13.0 0.00 0.33 0.00 73 1014.0
20260507071811 54 211 4.0 11.0 0.00 0.33 0.00 75 1013.7
20260507065001 55 234 4.0 13.0 0.00 0.33 0.00 75 1013.6
20260507060501 51 205 3.0 9.0 0.00 0.33 0.00 82 1013.3
20260507055002 50 246 3.0 8.0 0.00 0.33 0.00 85 1013.1
20260507053501 49 254 2.0 9.0 0.00 0.33 0.00 88 1013.0
20260507052006 49 248 2.0 6.0 0.00 0.33 0.00 89 1013.0
20260507050505 48 192 1.0 5.0 0.00 0.33 0.00 89 1012.9
20260507045001 48 222 0.0 3.0 0.00 0.33 0.00 89 1012.7
20260507043503 48 234 1.0 3.0 0.00 0.33 0.00 89 1012.6
20260507042002 48 217 0.0 3.0 0.00 0.33 0.00 88 1012.3
20260507040503 48 217 0.0 1.0 0.00 0.33 0.00 87 1012.3
20260507035001 48 217 0.0 1.0 0.00 0.33 0.00 87 1012.2
20260507033507 48 217 0.0 1.0 0.00 0.33 0.00 87 1012.2
20260507032006 48 217 0.0 1.0 0.00 0.33 0.00 87 1012.3
20260507030503 48 217 0.0 2.0 0.00 0.33 0.00 87 1012.4
20260507025005 48 251 0.0 2.0 0.00 0.33 0.00 86 1012.2
20260507023458 48 246 1.0 4.0 0.00 0.33 0.00 87 1011.9
20260507021958 48 205 2.0 4.0 0.00 0.33 0.00 87 1011.9
20260507020457 48 214 2.0 4.0 0.00 0.33 0.00 87 1011.8
20260507014955 48 218 1.0 6.0 0.00 0.33 0.00 87 1011.5
20260507013455 48 178 2.0 5.0 0.00 0.33 0.00 87 1011.5
20260507004955 49 239 2.0 4.0 0.00 0.33 0.00 87 1011.6
20260507003456 49 279 1.0 5.0 0.00 0.33 0.00 86 1011.5
20260507001958 49 227 1.0 5.0 0.00 0.33 0.00 86 1011.5
20260507000450 50 203 1.0 5.0 0.00 0.33 0.00 86 1011.7
20260506233449 50 255 2.0 4.0 0.00 0.33 0.00 86 1011.6
20260506231947 50 242 2.0 6.0 0.00 0.33 0.00 86 1011.5
20260506224947 50 284 2.0 7.0 0.00 0.33 0.00 86 1011.5
20260506223448 50 234 2.0 5.0 0.00 0.33 0.00 87 1011.5
20260506221948 50 284 1.0 6.0 0.00 0.33 0.00 87 1011.5
20260506220448 50 244 2.0 6.0 0.00 0.33 0.00 86 1011.4
20260506214943 50 252 2.0 5.0 0.00 0.33 0.33 86 1011.1
20260506213444 50 278 2.0 10.0 0.00 0.33 0.33 87 1011.1
20260506211945 50 251 3.0 10.0 0.00 0.35 0.33 88 1011.1
20260506210450 50 238 3.0 7.0 0.00 0.37 0.33 88 1011.0
20260506204946 50 250 2.0 10.0 0.00 0.41 0.33 87 1010.8
20260506203443 50 217 1.0 6.0 0.00 0.45 0.33 87 1010.6
20260506201944 51 194 2.0 6.0 0.00 0.46 0.33 87 1010.6
20260506194948 51 265 2.0 7.0 0.00 0.47 0.33 86 1010.4
20260506191945 51 217 3.0 8.0 0.00 0.50 0.33 86 1010.3
20260506190446 51 181 3.0 9.0 0.00 0.50 0.33 86 1010.1
20260506183447 51 201 3.0 9.0 0.00 0.50 0.33 85 1009.1
20260506181945 51 192 4.0 13.0 0.00 0.50 0.33 86 1008.9
20260506180446 51 254 4.0 15.0 0.00 0.50 0.33 87 1008.8
20260506174947 52 269 4.0 11.0 0.00 0.50 0.33 88 1008.6
20260506171941 53 320 5.0 18.0 0.00 0.50 0.33 90 1008.1
20260506170439 56 261 2.0 7.0 0.00 0.50 0.33 94 1007.6